Weather History for KSEG - December, 2012

Change the Weather History Date:

Friday, December 7, 2012

  Actual Average (KIPT) Record (KIPT)
Temperature  
Mean Temperature 32 °F 34 °F  
Max Temperature 37 °F 41 °F 69 °F (1998)
Min Temperature 26 °F 27 °F -5 °F (1926)
Degree Days  
Heating Degree Days 34 31  
Month to date heating degree days 210  
Since 1 July heating degree days 1455  
Cooling Degree Days 0 0  
Month to date cooling degree days 0  
Year to date cooling degree days 702  
Moisture  
Dew Point 34 °F    
Average Humidity 95    
Maximum Humidity 100    
Minimum Humidity 70    
Precipitation  
Precipitation 0.52 in 0.11 in 1.55 in (2011)
Month to date precipitation 0.80  
Year to date precipitation 39.15  
Snow  
Snow 0.00 in - - ()
Month to date snowfall  
Since 1 July snowfall  
Snow Depth -    
Sea Level Pressure  
Sea Level Pressure 30.10 in    
Wind  
Wind Speed 1 mph (SW)    
Max Wind Speed 6 mph    
Max Gust Speed -    
Visibility 4 miles    
Events Rain    
T = Trace of Precipitation, MM = Missing Value Source: NWS Daily Summary

Daily Weather History Graph

Daily Weather History Graph

Search for Another Location

Airport or City:

Trip Planner

Search our weather history database for the weather conditions in past years. The results will help you decide how hot, cold, wet, or windy it might be!

Date:

Astronomy

Dec. 07, 2012 Rise Set
Actual Time 7:18 AM EST 4:39 PM EST
Civil Twilight 6:47 AM EST 5:10 PM EST
Nautical Twilight 6:13 AM EST 5:44 PM EST
Astronomical Twilight 5:40 AM EST 6:17 PM EST
Moon 12:33 AM EST (12/7) 12:37 PM EST (12/7)
Length of Visible Light 10h 22m
Length of Day
9h 20m
Last Quarter, 39% of the Moon is Illuminated
Dec 7
Last Quarter
Dec 13
New
Dec 20
First Quarter
Dec 28
Full
Jan 4
Last Quarter

Hourly Weather History & Observations

Time (EST) Temp. Windchill Dew Point Humidity Pressure Visibility Wind Dir Wind Speed Gust Speed Precip Events Conditions
12:53 AM 26.1 °F - 24.1 °F 92% 30.22 in 9.0 mi Calm Calm - N/A   Clear
1:53 AM 27.0 °F - 24.1 °F 89% 30.21 in 9.0 mi Calm Calm - N/A   Clear
2:53 AM 30.0 °F - 27.0 °F 88% 30.20 in 10.0 mi Calm Calm - N/A   Overcast
3:53 AM 32.0 °F - 25.0 °F 75% 30.19 in 10.0 mi Calm Calm - N/A   Clear
4:53 AM 34.0 °F 31.0 °F 25.0 °F 70% 30.17 in 10.0 mi SSW 3.5 mph - N/A   Overcast
5:53 AM 33.1 °F - 28.0 °F 82% 30.17 in 5.0 mi Calm Calm - 0.02 in Rain Light Rain
6:53 AM 33.1 °F - 30.9 °F 92% 30.16 in 7.0 mi Calm Calm - 0.02 in Rain Light Rain
7:53 AM 34.0 °F - 30.9 °F 89% 30.17 in 2.0 mi Calm Calm - 0.05 in Rain Rain
8:06 AM 33.8 °F - 30.2 °F 87% 30.15 in 4.0 mi Calm Calm - 0.00 in Rain Light Rain
8:15 AM 33.8 °F - 32.0 °F 93% 30.15 in 1.8 mi Calm Calm - 0.01 in Rain Light Rain
8:23 AM 33.8 °F - 32.0 °F 93% 30.15 in 1.5 mi Calm Calm - 0.01 in Rain Light Rain
8:36 AM 33.8 °F - 32.0 °F 93% 30.15 in 1.5 mi Calm Calm - 0.02 in Rain Light Rain
8:53 AM 34.0 °F - 32.0 °F 92% 30.17 in 1.2 mi Calm Calm - 0.03 in Rain Rain
9:42 AM 33.8 °F - 33.8 °F 100% 30.15 in 1.0 mi Calm Calm - 0.05 in Rain Rain
9:53 AM 34.0 °F - 33.1 °F 96% 30.17 in 1.0 mi Calm Calm - 0.06 in Rain Light Rain
10:04 AM 33.8 °F - 33.8 °F 100% 30.16 in 1.5 mi Calm Calm - 0.00 in Rain Light Rain
10:45 AM 35.6 °F 32.8 °F 33.8 °F 93% 30.14 in 2.5 mi SW 3.5 mph - 0.02 in Rain Light Rain
10:53 AM 35.1 °F - 34.0 °F 96% 30.16 in 2.5 mi Calm Calm - 0.02 in Rain Light Rain
11:14 AM 35.6 °F 32.8 °F 33.8 °F 93% 30.13 in 3.0 mi SW 3.5 mph - 0.01 in Rain Light Rain
11:53 AM 36.0 °F - 35.1 °F 97% 30.12 in 4.0 mi Calm Calm - 0.01 in   Overcast
12:41 PM 37.4 °F 33.8 °F 35.6 °F 93% 30.07 in 3.0 mi South 4.6 mph - 0.01 in Rain Light Rain
12:53 PM 37.0 °F 32.4 °F 36.0 °F 96% 30.08 in 4.0 mi South 5.8 mph - 0.02 in Rain Light Rain
1:17 PM 37.4 °F 34.9 °F 35.6 °F 93% 30.07 in 3.0 mi SW 3.5 mph - 0.01 in Rain Light Rain
1:28 PM 37.4 °F - 35.6 °F 93% 30.06 in 4.0 mi Calm Calm - 0.01 in Rain Light Rain
1:53 PM 37.0 °F 34.5 °F 37.0 °F 100% 30.08 in 4.0 mi Variable 3.5 mph - 0.01 in Rain Light Rain
2:49 PM 37.4 °F - 37.4 °F 100% 30.05 in 2.5 mi Calm Calm - 0.02 in Rain Light Rain
2:53 PM 37.0 °F - 37.0 °F 100% 30.07 in 2.5 mi Calm Calm - 0.02 in Rain Light Rain
3:30 PM 37.4 °F 34.9 °F 37.4 °F 100% 30.06 in 3.0 mi WSW 3.5 mph - 0.03 in Rain Light Rain
3:49 PM 37.4 °F 34.9 °F 37.4 °F 100% 30.06 in 3.0 mi SW 3.5 mph - 0.03 in Rain Light Rain
3:53 PM 37.0 °F - 37.0 °F 100% 30.07 in 4.0 mi Calm Calm - 0.03 in Rain Light Rain
4:23 PM 37.4 °F - 37.4 °F 100% 30.06 in 3.0 mi Calm Calm - 0.00 in Rain Light Rain
4:53 PM 37.9 °F - 37.9 °F 100% 30.07 in 5.0 mi Calm Calm - 0.01 in Rain Light Rain
5:53 PM 37.9 °F - 37.9 °F 100% 30.07 in 5.0 mi Calm Calm - 0.01 in Rain Light Rain
6:53 PM 37.9 °F - 37.9 °F 100% 30.07 in 4.0 mi Calm Calm - 0.02 in Rain Light Rain
7:53 PM 37.9 °F - 37.9 °F 100% 30.07 in 5.0 mi Calm Calm - 0.01 in Rain Light Rain
8:53 PM 37.9 °F - 37.9 °F 100% 30.06 in 3.0 mi Calm Calm - 0.03 in Rain Rain
9:23 PM 37.4 °F - 37.4 °F 100% 30.03 in 2.5 mi Calm Calm - 0.03 in Rain Light Rain
9:38 PM 37.4 °F - 37.4 °F 100% 30.03 in 3.0 mi Calm Calm - 0.04 in Rain Light Rain
9:53 PM 37.9 °F - 37.9 °F 100% 30.04 in 3.0 mi Calm Calm - 0.06 in Rain Light Rain
10:01 PM 37.4 °F - 37.4 °F 100% 30.03 in 2.5 mi Calm Calm - 0.01 in Rain Rain
10:32 PM 37.4 °F - 37.4 °F 100% 30.01 in 2.5 mi Calm Calm - 0.03 in Rain Light Rain
10:45 PM 37.4 °F 34.9 °F 37.4 °F 100% 30.01 in 3.0 mi North 3.5 mph - 0.04 in Rain Light Rain
10:53 PM 37.9 °F 35.5 °F 37.9 °F 100% 30.03 in 3.0 mi WNW 3.5 mph - 0.05 in Rain Light Rain
11:07 PM 37.4 °F - 37.4 °F 100% 30.01 in 3.0 mi Calm Calm - 0.01 in Rain Rain
11:14 PM 37.4 °F - 37.4 °F 100% 30.01 in 2.5 mi Calm Calm - 0.01 in Rain Light Rain
11:21 PM 37.4 °F - 37.4 °F 100% 30.01 in 3.0 mi Calm Calm - 0.02 in Rain Light Rain
11:53 PM 37.9 °F - 37.9 °F 100% 30.02 in 3.0 mi Calm Calm - 0.04 in Rain Light Rain